Stations météo

réclame
Mon MeteoGroup
Feldberg/Mecklenburg, Allemagne (10282): Température de l'air & dewpoint: 17.05.2018 22:00:00 - 23.05.2018 22:00:00 (CEST)Feldberg/Mecklenburg, Allemagne (10282): Température de l'air 5cm & Température de l'air -5cm: 17.05.2018 22:00:00 - 23.05.2018 22:00:00 (CEST)Feldberg/Mecklenburg, Allemagne (10282): Température de l'air -20cm & Température de l'air -100cm: 17.05.2018 22:00:00 - 23.05.2018 22:00:00 (CEST)Feldberg/Mecklenburg, Allemagne (10282): Vitesse du vent & gusts: 17.05.2018 22:00:00 - 23.05.2018 22:00:00 (CEST)Feldberg/Mecklenburg, Allemagne (10282): Direction du vent: 17.05.2018 22:00:00 - 23.05.2018 22:00:00 (CEST)Feldberg/Mecklenburg, Allemagne (10282): reduced air pressure: 17.05.2018 22:00:00 - 23.05.2018 22:00:00 (CEST)Feldberg/Mecklenburg, Allemagne (10282): visibility: 17.05.2018 22:00:00 - 23.05.2018 22:00:00 (CEST)Feldberg/Mecklenburg, Allemagne (10282): Ensoleillement: 17.05.2018 22:00:00 - 23.05.2018 22:00:00 (CEST)Feldberg/Mecklenburg, Allemagne (10282): Quantités de précipitations: 17.05.2018 22:00:00 - 23.05.2018 22:00:00 (CEST)
Date & Time tt [°C] td [°C] tt 5cm [°C] tt -5cm [°C] tt -20cm [°C] tt -100cm [°C] ff [km/h] ff [knt] fx [km/h] fx [knt] dd ppp [hPa] vv [km] sd [min] rr [mm]
23.05.2018 22:00:00 14,8 7,0 13,4 21,2 23,1 14,1 15 8 25 14 NE 1024,6 50 0 0,0
23.05.2018 21:00:00 16,3 6,9 15,5 23,4 23,6 14,1 21 12 31 17 NNE 1024,0 37 42 0,0
23.05.2018 20:00:00 18,1 7,5 19,2 25,9 23,9 14,1 20 11 33 18 NNE 1023,6 13 60 0,0
23.05.2018 19:00:00 19,6 6,2 22,1 28,2 24,0 14,1 26 14 33 18 NNE 1023,1 9 60 0,0
23.05.2018 18:00:00 21,3 8,0 24,7 29,7 23,8 14,0 21 11 38 21 NE 1022,9 21 60 0,0
23.05.2018 17:00:00 21,9 7,7 26,1 31,6 23,3 14,0 20 11 32 17 NE 1022,8 13 60 0,0
23.05.2018 16:00:00 22,9 7,5 28,6 32,6 22,5 14,0 19 10 31 17 NNE 1022,9 17 60 0,0
23.05.2018 15:00:00 22,4 5,3 28,4 31,9 21,6 14,0 18 10 30 16 ENE 1023,1 19 60 0,0
23.05.2018 14:00:00 21,4 5,6 26,4 30,5 20,7 14,0 20 11 32 17 NE 1023,2 15 60 0,0
23.05.2018 13:00:00 21,2 3,7 25,7 29,1 19,8 14,0 19 10 36 19 ENE 1023,2 13 60 0,0
23.05.2018 12:00:00 19,8 6,0 23,9 27,4 18,9 14,0 20 11 30 16 NE 1022,9 23 60 0,0
23.05.2018 11:00:00 19,3 8,0 23,2 25,6 18,0 14,0 18 10 32 18 E 1022,7 19 60 0,0
23.05.2018 10:00:00 18,0 7,8 21,1 22,4 17,5 13,9 18 10 26 14 E 1022,6 17 60 0,0
23.05.2018 09:00:00 16,5 6,6 19,0 19,1 17,2 13,9 19 10 27 15 ENE 1022,4 6 60 0,0
23.05.2018 08:00:00 15,0 7,3 16,7 16,1 17,3 13,9 12 7 23 13 ENE 1021,9 17 60 0,0
23.05.2018 07:00:00 13,2 7,6 13,7 14,0 17,7 13,9 10 5 16 9 NE 1021,3 27 54 0,0
23.05.2018 06:00:00 11,3 7,2 9,5 13,5 18,2 13,9 8 5 18 10 NE 1020,7 32 15 0,0
23.05.2018 05:00:00 9,2 7,0 6,3 14,0 18,7 13,8 6 4 16 9 NE 1020,2 26 0 0,0
23.05.2018 04:00:00 11,4 7,0 9,7 14,7 19,3 13,8 10 5 18 10 ENE 1020,0 34 0 0,0
23.05.2018 03:00:00 11,3 7,5 7,8 15,4 20,0 13,8 7 4 14 8 ENE 1019,7 41 0 0,0
23.05.2018 02:00:00 10,9 8,0 8,6 16,2 20,7 13,8 6 4 13 7 NE 1019,4 36 0 0,0
23.05.2018 01:00:00 9,9 7,9 7,5 17,4 21,4 13,8 7 4 10 5 NE 1019,1 27 0 0,0
23.05.2018 00:00:00 12,0 8,5 9,8 18,7 22,2 13,8 7 4 15 8 NE 1018,7 29 0 0,0
22.05.2018 23:00:00 13,5 8,1 11,9 20,2 23,0 13,8 7 4 22 12 NE 1018,3 35 0 0,0
22.05.2018 22:00:00 15,6 7,1 14,4 22,1 23,7 13,7 12 6 21 12 NE 1017,7 40 0 0,0
22.05.2018 21:00:00 17,7 6,9 16,6 24,5 24,2 13,7 12 7 26 14 NE 1017,0 37 42 0,0
22.05.2018 20:00:00 19,7 7,7 20,1 27,4 24,5 13,7 15 8 26 14 NE 1016,3 43 60 0,0
22.05.2018 19:00:00 21,5 5,1 24,5 30,1 24,5 13,7 11 6 18 10 E 1015,8 36 60 0,0
22.05.2018 18:00:00 21,7 3,7 25,4 32,0 24,1 13,7 11 6 18 10 ENE 1015,7 34 60 0,0
22.05.2018 17:00:00 22,3 5,1 26,8 33,2 23,5 13,7 13 7 26 14 ENE 1015,7 33 60 0,0
22.05.2018 16:00:00 21,9 3,9 27,3 33,9 22,6 13,7 13 7 28 15 ESE 1015,7 20 60 0,0
22.05.2018 15:00:00 22,3 6,5 28,1 33,5 21,7 13,7 10 6 24 13 E 1015,9 20 59 0,0
22.05.2018 14:00:00 21,6 5,4 26,3 31,0 20,6 13,7 13 7 30 16 E 1016,0 26 36 0,0
22.05.2018 13:00:00 21,7 5,7 26,7 31,9 19,4 13,7 15 8 29 16 ENE 1016,2 28 60 0,0
22.05.2018 12:00:00 21,3 5,5 25,7 28,9 18,2 13,7 10 6 23 12 ESE 1016,3 19 60 0,0
22.05.2018 11:00:00 21,1 7,0 25,4 25,9 17,3 13,7 10 6 22 12 E 1016,8 21 60 0,0
22.05.2018 10:00:00 19,2 6,8 22,7 22,5 16,6 13,6 9 5 16 8 ESE 1016,9 26 60 0,0
22.05.2018 09:00:00 17,4 7,0 19,7 18,7 16,2 13,6 11 6 16 9 ESE 1017,1 11 60 0,0
22.05.2018 08:00:00 15,7 7,8 16,9 15,4 16,3 13,6 9 5 14 8 E 1017,1 14 60 0,0
22.05.2018 07:00:00 13,5 7,4 13,4 13,0 16,6 13,6 4 2 11 6 ENE 1017,2 31 49 0,0
22.05.2018 06:00:00 9,4 6,8 6,7 12,2 17,1 13,6 8 4 13 7 NE 1017,4 24 6 0,0
22.05.2018 05:00:00 8,8 6,7 5,3 12,7 17,7 13,6 8 5 13 7 NE 1017,5 27 0 0,0
22.05.2018 04:00:00 9,2 6,9 6,1 13,5 18,3 13,5 9 5 11 6 NE 1017,7 27 0 0,0
22.05.2018 03:00:00 10,6 7,0 6,3 14,2 18,9 13,5 8 4 12 6 NE 1017,8 35 0 0,0
22.05.2018 02:00:00 10,4 6,5 6,4 15,3 19,6 13,5 5 3 9 5 ENE 1018,1 37 0 0,0
22.05.2018 01:00:00 13,0 6,9 9,9 16,5 20,2 13,5 8 5 13 7 ENE 1018,3 42 0 0,0
22.05.2018 00:00:00 13,9 7,4 11,3 17,7 20,9 13,5 9 5 18 10 ENE 1018,4 35 0 0,0
21.05.2018 23:00:00 14,7 8,0 12,6 19,0 21,6 13,5 8 5 20 11 ENE 1018,7 41 0 0,0
21.05.2018 22:00:00 15,0 8,3 13,2 20,6 22,2 13,5 15 8 20 11 NE 1018,7 42 0 0,0
21.05.2018 21:00:00 16,3 8,3 14,7 22,9 22,7 13,5 12 7 20 11 NNE 1018,6 34 47 0,0
21.05.2018 20:00:00 19,7 5,4 20,0 25,3 23,0 13,5 14 8 29 16 ESE 1018,5 40 60 0,0
21.05.2018 19:00:00 20,8 4,7 22,3 27,5 23,0 13,5 19 10 36 20 ESE 1018,7 21 60 0,0
21.05.2018 18:00:00 21,2 4,0 23,3 29,4 22,7 13,5 22 12 39 21 E 1019,1 16 60 0,0
21.05.2018 17:00:00 21,5 4,8 24,4 30,9 22,2 13,5 22 12 38 20 ESE 1019,7 11 60 0,0
21.05.2018 16:00:00 21,4 6,9 24,9 31,5 21,5 13,5 21 11 39 21 E 1020,4 19 58 0,0
21.05.2018 15:00:00 21,4 6,9 26,3 31,5 20,5 13,5 17 9 36 20 E 1021,1 15 60 0,0
21.05.2018 14:00:00 20,7 6,1 23,8 30,9 19,4 13,5 23 12 41 22 E 1021,7 12 60 0,0
21.05.2018 13:00:00 20,6 5,9 24,6 29,5 18,2 13,4 20 11 35 19 ESE 1022,6 13 60 0,0
21.05.2018 12:00:00 20,0 6,7 24,2 27,5 17,1 13,4 20 11 29 16 E 1023,3 13 60 0,0
21.05.2018 11:00:00 18,8 6,5 22,4 24,7 16,1 13,4 14 8 25 14 E 1024,0 21 60 0,0
21.05.2018 10:00:00 16,4 7,2 20,0 21,0 15,5 13,4 11 6 19 10 E 1024,7 19 60 0,0
21.05.2018 09:00:00 14,9 7,1 17,7 17,3 15,1 13,4 11 6 18 10 E 1025,1 14 60 0,0
21.05.2018 08:00:00 12,9 7,2 14,4 14,0 15,1 13,4 11 6 18 10 E 1025,3 10 60 0,0
21.05.2018 07:00:00 11,5 6,2 11,6 11,7 15,5 13,4 9 5 12 7 ENE 1025,4 21 47 0,0
21.05.2018 06:00:00 9,1 6,3 6,5 10,7 15,9 13,3 8 4 12 6 NE 1025,5 25 6 0,0
21.05.2018 05:00:00 8,5 6,2 5,0 11,0 16,5 13,3 7 4 11 6 NE 1025,5 34 0 0,0
21.05.2018 04:00:00 7,3 5,9 4,1 11,7 17,1 13,3 7 4 12 6 NE 1025,9 32 0 0,0
21.05.2018 03:00:00 9,3 6,5 4,7 12,4 17,8 13,3 7 4 10 6 ENE 1025,6 39 0 0,0
21.05.2018 02:00:00 8,4 6,4 3,7 13,3 18,5 13,3 6 3 10 5 NE 1025,9 32 0 0,0
21.05.2018 01:00:00 8,8 5,6 5,6 14,5 19,2 13,3 6 4 13 7 NE 1026,2 39 0 0,0
21.05.2018 00:00:00 11,2 6,0 9,1 15,7 20,0 13,3 9 5 15 8 ENE 1026,1 42 0 0,0
20.05.2018 23:00:00 10,5 5,7 8,4 17,1 20,8 13,3 8 4 15 8 NE 1026,0 51 0 0,0
20.05.2018 22:00:00 11,6 4,8 9,6 18,9 21,5 13,3 9 5 21 12 NE 1025,9 52 0 0,0
20.05.2018 21:00:00 13,8 4,2 12,3 21,4 22,1 13,3 9 5 26 14 NE 1025,4 57 47 0,0
20.05.2018 20:00:00 16,4 3,5 17,0 24,3 22,4 13,3 16 9 26 14 NE 1025,0 31 60 0,0
20.05.2018 19:00:00 18,1 4,1 20,8 27,2 22,4 13,3 16 9 23 13 NE 1025,0 28 60 0,0
20.05.2018 18:00:00 19,4 1,2 22,4 29,3 22,1 13,3 14 7 27 14 E 1025,2 30 60 0,0
20.05.2018 17:00:00 19,3 -0,8 22,5 30,8 21,5 13,3 17 9 25 13 ESE 1025,5 19 60 0,0
20.05.2018 16:00:00 19,7 1,3 23,9 31,4 20,6 13,3 16 9 29 15 ESE 1025,8 20 60 0,0
20.05.2018 15:00:00 18,7 0,1 23,6 31,3 19,5 13,3 19 10 31 17 E 1026,3 23 60 0,0
20.05.2018 14:00:00 18,5 0,6 22,5 30,2 18,4 13,3 16 9 30 16 ENE 1026,7 24 60 0,0
20.05.2018 13:00:00 18,2 1,1 24,3 28,4 17,2 13,3 14 7 31 17 E 1026,9 26 60 0,0
20.05.2018 12:00:00 17,3 2,5 21,8 26,0 16,1 13,3 14 8 31 17 ESE 1027,3 24 60 0,0
20.05.2018 11:00:00 16,7 2,0 20,7 22,9 15,1 13,3 18 10 31 17 ENE 1027,4 18 60 0,0
20.05.2018 10:00:00 15,9 1,5 18,6 19,7 14,4 13,2 16 8 26 14 E 1027,6 16 60 0,0
20.05.2018 09:00:00 13,9 5,0 16,4 16,0 14,1 13,2 11 6 18 10 E 1027,4 25 60 0,0
20.05.2018 08:00:00 11,9 5,8 13,4 12,4 14,1 13,2 12 6 19 10 E 1027,2 30 60 0,0
20.05.2018 07:00:00 9,3 4,6 9,8 9,9 14,5 13,2 7 4 12 7 ENE 1027,0 23 48 0,0
20.05.2018 06:00:00 6,7 3,4 4,3 9,1 15,1 13,2 7 4 13 7 NE 1026,7 30 4 0,0
20.05.2018 05:00:00 6,4 3,2 3,5 9,5 15,7 13,2 6 4 17 9 NE 1026,3 38 0 0,0
20.05.2018 04:00:00 6,2 3,3 1,6 10,2 16,4 13,2 5 3 14 7 NE 1026,2 47 0 0,0
20.05.2018 03:00:00 7,4 3,2 4,0 11,1 17,1 13,2 8 5 14 8 ENE 1026,2 50 0 0,0
20.05.2018 02:00:00 7,1 3,2 3,8 12,3 17,8 13,2 10 5 16 8 NE 1026,1 53 0 0,0
20.05.2018 01:00:00 7,1 3,5 3,7 13,6 18,6 13,2 10 5 16 9 NE 1025,9 54 0 0,0
20.05.2018 00:00:00 9,2 3,5 6,6 15,1 19,3 13,2 10 5 18 10 NE 1025,6 58 0 0,0
19.05.2018 23:00:00 11,3 3,3 9,4 16,7 20,1 13,2 11 6 20 11 NE 1025,0 58 0 0,0
19.05.2018 22:00:00 13,3 2,5 11,7 18,5 20,8 13,2 10 6 24 13 ENE 1024,4 48 0 0,0
19.05.2018 21:00:00 14,7 3,7 13,5 20,7 21,3 13,2 12 7 27 15 ENE 1023,7 53 43 0,0
19.05.2018 20:00:00 16,5 3,6 16,9 23,4 21,7 13,2 16 9 30 16 ENE 1023,1 35 60 0,0
19.05.2018 19:00:00 17,8 4,9 19,7 26,1 21,7 13,2 17 9 28 15 NE 1022,8 20 60 0,0
19.05.2018 18:00:00 18,8 6,2 22,0 28,6 21,4 13,2 15 8 29 15 NE 1022,5 19 60 0,0
19.05.2018 17:00:00 19,6 7,3 24,3 30,3 20,7 13,2 13 7 29 16 NE 1022,6 37 60 0,0
19.05.2018 16:00:00 19,2 4,6 23,8 31,0 19,8 13,2 14 8 30 16 ENE 1022,6 24 60 0,0
19.05.2018 15:00:00 19,4 6,2 24,1 30,7 18,7 13,2 11 6 23 13 E 1022,7 31 60 0,0
19.05.2018 14:00:00 18,2 4,1 22,8 29,4 17,5 13,2 16 9 35 19 ENE 1023,1 21 60 0,0
19.05.2018 13:00:00 17,3 4,4 22,1 27,3 16,3 13,2 14 8 28 15 E 1023,2 23 60 0,0
19.05.2018 12:00:00 16,7 3,2 20,6 24,9 15,2 13,3 18 10 29 16 ENE 1023,4 19 60 0,0
19.05.2018 11:00:00 15,5 2,0 19,3 22,0 14,3 13,3 15 8 26 14 E 1023,4 29 60 0,0
19.05.2018 10:00:00 14,3 1,1 17,1 18,6 13,6 13,3 18 10 26 14 E 1023,3 32 60 0,0
19.05.2018 09:00:00 13,2 2,3 15,5 15,0 13,3 13,3 14 7 23 12 E 1023,0 15 58 0,0
19.05.2018 08:00:00 11,2 4,8 12,2 11,7 13,3 13,3 10 5 19 11 E 1022,6 33 30 0,0
19.05.2018 07:00:00 9,6 6,6 9,6 9,9 13,6 13,3 8 5 11 6 ENE 1022,2 16 44 0,0
19.05.2018 06:00:00 6,0 4,9 4,4 9,1 14,0 13,3 3 2 7 4 NNE 1021,9 17 4 0,0
19.05.2018 05:00:00 5,5 4,9 3,1 9,4 14,5 13,3 4 2 7 4 NE 1021,8 27 0 0,0
19.05.2018 04:00:00 5,0 4,3 3,7 10,2 15,0 13,3 5 3 8 4 NNE 1021,8 25 0 0,0
19.05.2018 03:00:00 5,8 4,9 3,5 11,1 15,5 13,3 3 2 10 5 N 1021,4 32 0 0,0
19.05.2018 02:00:00 9,2 5,8 5,5 12,2 16,0 13,3 7 4 10 5 ENE 1021,1 43 0 0,0
19.05.2018 01:00:00 10,1 5,3 6,8 13,7 16,4 13,3 4 2 11 6 ENE 1021,0 48 0 0,0
19.05.2018 00:00:00 11,8 5,0 11,0 15,1 16,6 13,3 8 4 12 7 E 1020,8 52 0 0,0
18.05.2018 23:00:00 13,1 5,3 12,9 15,7 16,9 13,3 9 5 16 9 ENE 1020,6 47 0 0,0
18.05.2018 22:00:00 13,7 9,2 13,7 16,5 17,1 13,3 11 6 19 10 ENE 1020,3 24 0 0,0
18.05.2018 21:00:00 14,4 12,0 14,4 17,1 17,3 13,3 4 2 13 7 WNW 1019,9 8 0 0,0
18.05.2018 20:00:00 14,8 11,7 15,0 17,9 17,4 13,3 5 3 9 5 WNW 1019,6 10 0 0,0
18.05.2018 19:00:00 15,2 11,5 15,6 18,8 17,3 13,3 5 3 11 6 WNW 1019,2 11 0 0,0
18.05.2018 18:00:00 15,5 11,0 16,6 19,8 17,2 13,3 8 4 13 7 WNW 1019,0 12 0 0,0
18.05.2018 17:00:00 15,4 10,7 16,6 20,4 16,8 13,3 8 5 19 11 W 1019,0 12 0 0,0
18.05.2018 16:00:00 15,5 10,7 17,8 20,9 16,4 13,3 11 6 18 10 W 1018,9 12 0 0,0
18.05.2018 15:00:00 15,4 11,0 17,9 19,4 16,0 13,3 10 6 16 9 W 1019,0 12 0 0,0
18.05.2018 14:00:00 14,4 10,1 16,2 18,1 15,7 13,3 8 4 16 9 W 1019,0 11 0 0,0
18.05.2018 13:00:00 13,9 10,2 15,3 16,8 15,6 13,2 10 5 18 10 NW 1019,0 10 0 0,0
18.05.2018 12:00:00 12,9 10,5 13,6 15,9 15,5 13,2 10 5 16 9 WNW 1018,9 7 0 0,0
18.05.2018 11:00:00 12,4 10,5 13,4 15,6 15,4 13,2 11 6 16 9 W 1018,6 6 0 0,0
18.05.2018 10:00:00 12,1 10,3 13,3 15,1 15,3 13,2 11 6 19 10 W 1018,0 5 0 0,0
18.05.2018 09:00:00 11,6 10,0 12,3 14,3 15,4 13,2 10 5 19 10 WNW 1017,7 5 0 0,0
18.05.2018 08:00:00 11,2 9,9 12,0 13,9 15,5 13,2 11 6 19 11 W 1017,1 4,7 0 0,0
18.05.2018 07:00:00 10,4 9,7 10,8 13,1 15,7 13,2 13 7 20 11 W 1016,9 2,5 0 0,0
18.05.2018 06:00:00 9,9 8,8 10,1 12,7 16,0 13,2 11 6 18 10 WNW 1016,8 4,8 0 0,0
18.05.2018 05:00:00 9,5 8,4 9,5 12,3 16,5 13,2 10 6 16 9 WNW 1016,5 7 0 0,0
18.05.2018 04:00:00 9,1 8,0 8,4 12,6 17,0 13,1 9 5 22 12 WNW 1016,4 8 0 0,0
18.05.2018 03:00:00 9,7 8,2 9,0 13,2 17,6 13,1 16 8 24 13 WNW 1016,3 9 0 0,0
18.05.2018 02:00:00 10,1 8,5 9,4 14,0 18,1 13,1 16 9 27 14 WNW 1016,2 10 0 0,0
18.05.2018 01:00:00 11,1 9,0 10,3 15,0 18,8 13,1 19 10 27 15 WNW 1015,8 11 0 0,0
18.05.2018 00:00:00 12,2 9,2 11,3 16,0 19,4 13,1 19 10 27 15 WNW 1015,8 11 0 0,0
17.05.2018 23:00:00 13,4 10,0 12,3 17,3 20,1 13,1 13 7 23 12 NW 1015,7 13 0 0,0
17.05.2018 22:00:00 14,5 9,7 13,2 18,8 20,7 13,1 9 5 19 10 NW 1015,3 14 0 0,0

tt = Température de l'air
td = dewpoint
tt 5cm = Température de l'air 5cm
tt -5cm = Température de l'air -5cm
tt -20cm = Température de l'air -20cm
tt -100cm = Température de l'air -100cm
ff = Vitesse du vent
fx = gusts
dd = Direction du vent
ppp = reduced air pressure
vv = visibility
sd = Ensoleillement
rr = Quantités de précipitations

stations d'obs. à proximité